Regional Weather Roundup
Issued by NWS Bismarck, ND

Home | Current Version | Previous Version | Text Only | Print | Product List | Glossary On
Versions: 1 2 3 4 5 6 7 8 9 10 11 12 13 14 15 16 17 18 19 20 21 22 23 24 25 26 27 28 29 30 31 32 33 34 35 36 37 38 39 40 41 42 43 44 45 46 47 48 49 50
000
ASUS43 KBIS 212359
RWRBIS

NWR BROADCAST TEXT
NATIONAL WEATHER SERVICE BISMARCK ND
700 PM CDT TUE OCT 21 2014

NOTE: "FAIR" INDICATES FEW OR NO CLOUDS BELOW 12,000 FEET WITH NO
SIGNIFICANT WEATHER AND/OR OBSTRUCTIONS TO VISIBILITY.


CITY           SKY/WX    TMP DP  RH WIND       PRES   REMARKS
WILLISTON      CLEAR     71  42  35 CALM      29.57S
MINOT          CLEAR     63  43  48 E3        29.61F
MINOT AFB      NOT AVBL
BISMARCK       CLEAR     76  47  35 S16       29.66S
DICKINSON      NOT AVBL
GARRISON         N/A     69  48  47 NE3       29.62S
HETTINGER ARPT CLEAR     69  43  38 S10       29.65S
JAMESTOWN      NOT AVBL
CARRINGTON     FAIR      66  45  45 SE18G24   29.74S HAZE
OAKES            N/A     66  46  48 SE18      29.83S
$$

CITY           SKY/WX    TMP DP  RH WIND       PRES   REMARKS
GRAND FORKS    CLEAR     60  42  51 SE23G30   29.84S
GRAND FORKS AF NOT AVBL
DEVILS LAKE    CLEAR     63  43  48 SE18      29.72F
FARGO          CLEAR     61  41  47 SE23G36   29.90R
CAVALIER       FAIR      59  41  51 SE15G25   29.81S
GRAFTON        FAIR      59  41  51 SE23G29   29.82F
GWINNER        CLEAR     63  43  48 SE16      29.87S
$$

CITY           SKY/WX    TMP DP  RH WIND       PRES   REMARKS
ABERDEEN       CLEAR     71  44  37 SE14      29.83R
MOBRIDGE       CLEAR     74  44  34 S20       29.69R
RAPID CITY     CLEAR     68  44  42 S9        29.73R
GLASGOW        PTCLDY    63  42  46 N8        29.56F
SIDNEY         CLEAR     63  45  51 CALM      29.58F
WOLF POINT     PTCLDY    67  49  52 CALM      29.57R
GLENDIVE       CLEAR     64  43  45 S6        29.60F
MILES CITY     LGT RAIN  68  42  38 W8        29.62R
BAKER          CLEAR     68  39  34 W6        29.63S
$$

CITY           SKY/WX    TMP DP  RH WIND       PRES   REMARKS
BILLINGS       CLOUDY    66  25  21 W25       29.72R
GREAT FALLS    LGT RAIN  45  44  97 S13       29.83R
$$




USA.gov is the U.S. government's official web portal to all federal, state and local government web resources and services.